This demonstration page uses our WeatherBlox Daily Observations layout. Learn more.

38.89511, -77.03637

Hourly Observations for December 12, 2019

Temp ( °F °C ) Dew Point ( °F °C ) Humidity (%) Winds ( mph kmh ) Pressure ( in mb ) Visibility ( mi km ) Precip ( " mm )
12:52 am 00:52 Clear 34 1.1 17 -8.3 50 50 VRB 5 7 30.6 1036 10 16.0934 0 0
1:52 am 01:52 Clear 32 0 18 -7.8 56 56 NNE 5 7 30.62 1037 10 16.0934 0 0
2:52 am 02:52 Clear 32 0 18 -7.8 56 56 NNW 10 17 30.63 1037 10 16.0934 0 0
3:52 am 03:52 Clear 31 -0.6 18 -7.8 59 59 NNW 10 17 30.65 1038 10 16.0934 0 0
4:52 am 04:52 Clear 32 0 19 -7.2 59 59 N 16 26 30.66 1038 10 16.0934 0 0
5:52 am 05:52 Clear 31 -0.6 18 -7.8 59 59 NNE 15 24 30.68 1039 10 16.0934 0 0
6:52 am 06:52 Mostly Clear 30 -1.1 17 -8.3 58 58 NE 10 17 30.71 1040 10 16.0934 0 0
7:52 am 07:52 Partly Cloudy 31 -0.6 18 -7.8 59 59 E 5 7 30.73 1041 10 16.0934 0 0
8:52 am 08:52 Partly Cloudy 32 0 16 -8.9 52 52 NE 10 17 30.74 1041 10 16.0934 0 0
9:52 am 09:52 Mostly Cloudy 34 1.1 15 -9.4 46 46 ENE 5 7 30.76 1042 10 16.0934 0 0
10:52 am 10:52 Partly Cloudy 36 2.2 15 -9.4 42 42 Calm 30.76 1042 10 16.0934 0 0
11:52 am 11:52 Mostly Sunny 37 2.8 14 -10 39 39 Calm 30.74 1041 10 16.0934 0 0
12:52 pm 12:52 Partly Cloudy 37 2.8 15 -9.4 41 41 Calm 30.71 1040 10 16.0934 0 0
1:52 pm 13:52 Mostly Cloudy 39 3.9 15 -9.4 38 38 Calm 30.68 1039 10 16.0934 0 0
2:52 pm 14:52 Mostly Cloudy 39 3.9 17 -8.3 41 41 Calm 30.67 1039 10 16.0934 0 0
3:52 pm 15:52 Mostly Cloudy 39 3.9 18 -7.8 43 43 SSE 7 11 30.66 1038 10 16.0934 0 0
4:52 pm 16:52 Mostly Cloudy 37 2.8 20 -6.7 50 50 SE 9 15 30.65 1038 10 16.0934 0 0
5:52 pm 17:52 Mostly Cloudy 35 1.7 17 -8.3 48 48 SE 8 13 30.67 1039 10 16.0934 0 0
6:52 pm 18:52 Mostly Cloudy 35 1.7 18 -7.8 50 50 ESE 9 15 30.66 1038 10 16.0934 0 0
7:52 pm 19:52 Partly Cloudy 34 1.1 19 -7.2 54 54 ESE 8 13 30.63 1037 10 16.0934 0 0
8:52 pm 20:52 Mostly Cloudy 34 1.1 20 -6.7 56 56 ESE 8 13 30.62 1037 10 16.0934 0 0
9:52 pm 21:52 Cloudy 34 1.1 19 -7.2 54 54 Calm 30.6 1036 10 16.0934 0 0
10:52 pm 22:52 Cloudy 35 1.7 23 -5 61 61 ENE 3 6 30.59 1036 10 16.0934 0 0
11:52 pm 23:52 Cloudy 34 1.1 23 -5 64 64 ENE 3 6 30.56 1035 9 14.48406 0 0

Powered by AerisWeather